Location: North Evanston
(42.0634°N, 87.6976°W)
Time: 14:48:01
(UTC+00:00)

Vanguard 3 - Pass Details

Date: 10 May 2026
Orbit: 507 x 3204 km, 33.3° (Epoch: 6 June)

Event Time Altitude Azimuth Distance (km) Brightness Sun altitude
Rises 21:02:13 0° 239° (WSW) 7,053 12.7 42.1°
Reaches altitude 10° 21:07:01 10° 236° (SW) 6,109 12.6 41.3°
Maximum altitude 21:25:40 56° 166° (SSE) 3,270 10.7 37.9°
Drops below altitude 10° 21:39:26 10° 94° (E) 4,659 10.6 35.4°
Sets 21:42:32 0° 90° (E) 5,351 10.8 34.8°
